Year,Month,Day,Hour,Minute,Value (Times are PST for temperature in C)
2008,02,21,00,00,5.10
2008,02,21,00,01,5.10
2008,02,21,00,02,5.10
2008,02,21,00,03,5.10
2008,02,21,00,04,5.20
2008,02,21,00,05,5.20
2008,02,21,00,06,5.20
2008,02,21,00,07,5.20
2008,02,21,00,08,5.20
2008,02,21,00,09,5.20
2008,02,21,00,10,5.20
2008,02,21,00,11,5.20
2008,02,21,00,12,5.20
2008,02,21,00,13,5.20
2008,02,21,00,14,5.20
2008,02,21,00,15,5.20
2008,02,21,00,16,5.20
2008,02,21,00,17,5.20
2008,02,21,00,18,5.20
2008,02,21,00,19,5.20
2008,02,21,00,20,5.20
2008,02,21,00,21,5.20
2008,02,21,00,22,5.20
2008,02,21,00,23,5.20
2008,02,21,00,24,5.20
2008,02,21,00,25,5.20
2008,02,21,00,26,5.20
2008,02,21,00,27,5.20
2008,02,21,00,28,5.30
2008,02,21,00,29,5.30
2008,02,21,00,30,5.30
2008,02,21,00,31,5.30
2008,02,21,00,32,5.30
2008,02,21,00,33,5.30
2008,02,21,00,34,5.30
2008,02,21,00,35,5.30
2008,02,21,00,36,5.30
2008,02,21,00,37,5.30
2008,02,21,00,38,5.20
2008,02,21,00,39,5.20
2008,02,21,00,40,5.20
2008,02,21,00,41,5.20
2008,02,21,00,42,5.20
2008,02,21,00,43,5.20
2008,02,21,00,44,5.30
2008,02,21,00,45,5.30
2008,02,21,00,46,5.30
2008,02,21,00,47,5.20
2008,02,21,00,48,5.20
2008,02,21,00,49,5.20
2008,02,21,00,50,5.20
2008,02,21,00,51,5.20
2008,02,21,00,52,5.20
2008,02,21,00,53,5.20
2008,02,21,00,54,5.20
2008,02,21,00,55,5.20
2008,02,21,00,56,5.20
2008,02,21,00,57,5.20
2008,02,21,00,58,5.20
2008,02,21,00,59,5.20
2008,02,21,01,00,5.20
2008,02,21,01,01,5.20
2008,02,21,01,02,5.10
2008,02,21,01,03,5.10
2008,02,21,01,04,5.10
2008,02,21,01,05,5.10
2008,02,21,01,06,5.10
2008,02,21,01,07,5.00
2008,02,21,01,08,4.90
2008,02,21,01,09,4.90
2008,02,21,01,10,4.90
2008,02,21,01,11,4.90
2008,02,21,01,12,4.90
2008,02,21,01,13,4.90
2008,02,21,01,14,4.90
2008,02,21,01,15,4.90
2008,02,21,01,16,4.90
2008,02,21,01,17,4.90
2008,02,21,01,18,4.90
2008,02,21,01,19,4.90
2008,02,21,01,20,4.90
2008,02,21,01,21,4.90
2008,02,21,01,22,4.80
2008,02,21,01,23,4.80
2008,02,21,01,24,4.80
2008,02,21,01,25,4.70
2008,02,21,01,26,4.70
2008,02,21,01,27,4.70
2008,02,21,01,28,4.70
2008,02,21,01,29,4.70
2008,02,21,01,30,4.70
2008,02,21,01,31,4.70
2008,02,21,01,32,4.60
2008,02,21,01,33,4.60
2008,02,21,01,34,4.60
2008,02,21,01,35,4.60
2008,02,21,01,36,4.60
2008,02,21,01,37,4.60
2008,02,21,01,38,4.60
2008,02,21,01,39,4.60
2008,02,21,01,40,4.60
2008,02,21,01,41,4.60
2008,02,21,01,42,4.60
2008,02,21,01,43,4.60
2008,02,21,01,44,4.60
2008,02,21,01,45,4.60
2008,02,21,01,46,4.60
2008,02,21,01,47,4.60
2008,02,21,01,48,4.60
2008,02,21,01,49,4.60
2008,02,21,01,50,4.60
2008,02,21,01,51,4.60
2008,02,21,01,52,4.60
2008,02,21,01,53,4.60
2008,02,21,01,54,4.60
2008,02,21,01,55,4.60
2008,02,21,01,56,4.70
2008,02,21,01,57,4.80
2008,02,21,01,58,4.80
2008,02,21,01,59,4.80
2008,02,21,02,00,4.80
2008,02,21,02,01,4.80
2008,02,21,02,02,4.80
2008,02,21,02,03,4.90
2008,02,21,02,04,4.90
2008,02,21,02,05,4.90
2008,02,21,02,06,4.90
2008,02,21,02,07,4.90
2008,02,21,02,08,4.90
2008,02,21,02,09,4.90
2008,02,21,02,10,4.90
2008,02,21,02,11,4.90
2008,02,21,02,12,4.90
2008,02,21,02,13,4.90
2008,02,21,02,14,4.90
2008,02,21,02,15,4.90
2008,02,21,02,16,4.90
2008,02,21,02,17,4.90
2008,02,21,02,18,4.90
2008,02,21,02,19,4.90
2008,02,21,02,20,4.90
2008,02,21,02,21,4.90
2008,02,21,02,22,4.90
2008,02,21,02,23,4.90
2008,02,21,02,24,4.90
2008,02,21,02,25,4.90
2008,02,21,02,26,4.90
2008,02,21,02,27,4.90
2008,02,21,02,28,4.90
2008,02,21,02,29,4.90
2008,02,21,02,30,4.90
2008,02,21,02,31,4.90
2008,02,21,02,32,4.80
2008,02,21,02,33,4.80
2008,02,21,02,34,4.80
2008,02,21,02,35,4.80
2008,02,21,02,36,4.80
2008,02,21,02,37,4.80
2008,02,21,02,38,4.70
2008,02,21,02,39,4.70
2008,02,21,02,40,4.70
2008,02,21,02,41,4.70
2008,02,21,02,42,4.70
2008,02,21,02,43,4.70
2008,02,21,02,44,4.70
2008,02,21,02,45,4.60
2008,02,21,02,46,4.60
2008,02,21,02,47,4.60
2008,02,21,02,48,4.60
2008,02,21,02,49,4.60
2008,02,21,02,50,4.60
2008,02,21,02,51,4.60
2008,02,21,02,52,4.60
2008,02,21,02,53,4.60
2008,02,21,02,54,4.60
2008,02,21,02,55,4.60
2008,02,21,02,56,4.60
2008,02,21,02,57,4.60
2008,02,21,02,58,4.60
2008,02,21,02,59,4.60
2008,02,21,03,00,4.60
2008,02,21,03,01,4.60
2008,02,21,03,02,4.50
2008,02,21,03,03,4.50
2008,02,21,03,04,4.50
2008,02,21,03,05,4.50
2008,02,21,03,06,4.50
2008,02,21,03,07,4.50
2008,02,21,03,08,4.50
2008,02,21,03,09,4.40
2008,02,21,03,10,4.40
2008,02,21,03,11,4.40
2008,02,21,03,12,4.40
2008,02,21,03,13,4.40
2008,02,21,03,14,4.30
2008,02,21,03,15,4.30
2008,02,21,03,16,4.30
2008,02,21,03,17,4.30
2008,02,21,03,18,4.30
2008,02,21,03,19,4.30
2008,02,21,03,20,4.30
2008,02,21,03,21,4.30
2008,02,21,03,22,4.30
2008,02,21,03,23,4.20
2008,02,21,03,24,4.20
2008,02,21,03,25,4.20
2008,02,21,03,26,4.20
2008,02,21,03,27,4.30
2008,02,21,03,28,4.30
2008,02,21,03,29,4.30
2008,02,21,03,30,4.40
2008,02,21,03,31,4.40
2008,02,21,03,32,4.40
2008,02,21,03,33,4.40
2008,02,21,03,34,4.40
2008,02,21,03,35,4.30
2008,02,21,03,36,4.30
2008,02,21,03,37,4.30
2008,02,21,03,38,4.40
2008,02,21,03,39,4.40
2008,02,21,03,40,4.40
2008,02,21,03,41,4.40
2008,02,21,03,42,4.40
2008,02,21,03,43,4.40
2008,02,21,03,44,4.50
2008,02,21,03,45,4.50
2008,02,21,03,46,4.50
2008,02,21,03,47,4.50
2008,02,21,03,48,4.40
2008,02,21,03,49,4.50
2008,02,21,03,50,4.50
2008,02,21,03,51,4.50
2008,02,21,03,52,4.40
2008,02,21,03,53,4.40
2008,02,21,03,54,4.40
2008,02,21,03,55,4.40
2008,02,21,03,56,4.40
2008,02,21,03,57,4.40
2008,02,21,03,58,4.40
2008,02,21,03,59,4.40
2008,02,21,04,00,4.40
2008,02,21,04,01,4.40
2008,02,21,04,02,4.40
2008,02,21,04,03,4.30
2008,02,21,04,04,4.40
2008,02,21,04,05,4.40
2008,02,21,04,06,4.40
2008,02,21,04,07,4.30
2008,02,21,04,08,4.30
2008,02,21,04,09,4.30
2008,02,21,04,10,4.30
2008,02,21,04,11,4.30
2008,02,21,04,12,4.30
2008,02,21,04,13,4.30
2008,02,21,04,14,4.30
2008,02,21,04,15,4.30
2008,02,21,04,16,4.20
2008,02,21,04,17,4.20
2008,02,21,04,18,4.20
2008,02,21,04,19,4.20
2008,02,21,04,20,4.20
2008,02,21,04,21,4.20
2008,02,21,04,22,4.20
2008,02,21,04,23,4.20
2008,02,21,04,24,4.20
2008,02,21,04,25,4.20
2008,02,21,04,26,4.20
2008,02,21,04,27,4.20
2008,02,21,04,28,4.20
2008,02,21,04,29,4.20
2008,02,21,04,30,4.30
2008,02,21,04,31,4.30
2008,02,21,04,32,4.30
2008,02,21,04,33,4.20
2008,02,21,04,34,4.20
2008,02,21,04,35,4.20
2008,02,21,04,36,4.20
2008,02,21,04,37,4.20
2008,02,21,04,38,4.20
2008,02,21,04,39,4.20
2008,02,21,04,40,4.20
2008,02,21,04,41,4.20
2008,02,21,04,42,4.30
2008,02,21,04,43,4.30
2008,02,21,04,44,4.30
2008,02,21,04,45,4.30
2008,02,21,04,46,4.30
2008,02,21,04,47,4.30
2008,02,21,04,48,4.30
2008,02,21,04,49,4.30
2008,02,21,04,50,4.30
2008,02,21,04,51,4.30
2008,02,21,04,52,4.30
2008,02,21,04,53,4.30
2008,02,21,04,54,4.30
2008,02,21,04,55,4.30
2008,02,21,04,56,4.30
2008,02,21,04,57,4.20
2008,02,21,04,58,4.30
2008,02,21,04,59,4.30
2008,02,21,05,00,4.30
2008,02,21,05,01,4.30
2008,02,21,05,02,4.30
2008,02,21,05,03,4.30
2008,02,21,05,04,4.30
2008,02,21,05,05,4.30
2008,02,21,05,06,4.30
2008,02,21,05,07,4.30
2008,02,21,05,08,4.30
2008,02,21,05,09,4.30
2008,02,21,05,10,4.20
2008,02,21,05,11,4.20
2008,02,21,05,12,4.20
2008,02,21,05,13,4.20
2008,02,21,05,14,4.20
2008,02,21,05,15,4.20
2008,02,21,05,16,4.20
2008,02,21,05,17,4.20
2008,02,21,05,18,4.20
2008,02,21,05,19,4.20
2008,02,21,05,20,4.20
2008,02,21,05,21,4.20
2008,02,21,05,22,4.20
2008,02,21,05,23,4.20
2008,02,21,05,24,4.20
2008,02,21,05,25,4.20
2008,02,21,05,26,4.20
2008,02,21,05,27,4.20
2008,02,21,05,28,4.20
2008,02,21,05,29,4.20
2008,02,21,05,30,4.20
2008,02,21,05,31,4.20
2008,02,21,05,32,4.20
2008,02,21,05,33,4.20
2008,02,21,05,34,4.20
2008,02,21,05,35,4.20
2008,02,21,05,36,4.20
2008,02,21,05,37,4.20
2008,02,21,05,38,4.20
2008,02,21,05,39,4.20
2008,02,21,05,40,4.20
2008,02,21,05,41,4.20
2008,02,21,05,42,4.20
2008,02,21,05,43,4.20
2008,02,21,05,44,4.20
2008,02,21,05,45,4.20
2008,02,21,05,46,4.10
2008,02,21,05,47,4.10
2008,02,21,05,48,4.10
2008,02,21,05,49,4.10
2008,02,21,05,50,4.10
2008,02,21,05,51,4.10
2008,02,21,05,52,4.10
2008,02,21,05,53,4.10
2008,02,21,05,54,4.10
2008,02,21,05,55,4.10
2008,02,21,05,56,4.00
2008,02,21,05,57,4.00
2008,02,21,05,58,4.00
2008,02,21,05,59,4.10
2008,02,21,06,00,4.10
2008,02,21,06,01,4.10
2008,02,21,06,02,4.10
2008,02,21,06,03,4.10
2008,02,21,06,04,4.10
2008,02,21,06,05,4.10
2008,02,21,06,06,4.10
2008,02,21,06,07,4.10
2008,02,21,06,08,4.10
2008,02,21,06,09,4.20
2008,02,21,06,10,4.20
2008,02,21,06,11,4.20
2008,02,21,06,12,4.20
2008,02,21,06,13,4.20
2008,02,21,06,14,4.20
2008,02,21,06,15,4.20
2008,02,21,06,16,4.20
2008,02,21,06,17,4.20
2008,02,21,06,18,4.20
2008,02,21,06,19,4.20
2008,02,21,06,20,4.20
2008,02,21,06,21,4.20
2008,02,21,06,22,4.20
2008,02,21,06,23,4.20
2008,02,21,06,24,4.20
2008,02,21,06,25,4.20
2008,02,21,06,26,4.20
2008,02,21,06,27,4.20
2008,02,21,06,28,4.20
2008,02,21,06,29,4.20
2008,02,21,06,30,4.20
2008,02,21,06,31,4.20
2008,02,21,06,32,4.20
2008,02,21,06,33,4.20
2008,02,21,06,34,4.20
2008,02,21,06,35,4.20
2008,02,21,06,36,4.20
2008,02,21,06,37,4.20
2008,02,21,06,38,4.20
2008,02,21,06,39,4.20
2008,02,21,06,40,4.20
2008,02,21,06,41,4.20
2008,02,21,06,42,4.20
2008,02,21,06,43,4.20
2008,02,21,06,44,4.20
2008,02,21,06,45,4.20
2008,02,21,06,46,4.20
2008,02,21,06,47,4.20
2008,02,21,06,48,4.10
2008,02,21,06,49,4.10
2008,02,21,06,50,4.10
2008,02,21,06,51,4.20
2008,02,21,06,52,4.20
2008,02,21,06,53,4.20
2008,02,21,06,54,4.20
2008,02,21,06,55,4.20
2008,02,21,06,56,4.10
2008,02,21,06,57,4.10
2008,02,21,06,58,4.10
2008,02,21,06,59,4.10
2008,02,21,07,00,4.10
2008,02,21,07,01,4.10
2008,02,21,07,02,4.10
2008,02,21,07,03,4.10
2008,02,21,07,04,4.10
2008,02,21,07,05,4.10
2008,02,21,07,06,4.10
2008,02,21,07,07,4.00
2008,02,21,07,08,4.00
2008,02,21,07,09,4.00
2008,02,21,07,10,4.00
2008,02,21,07,11,4.00
2008,02,21,07,12,4.00
2008,02,21,07,13,4.00
2008,02,21,07,14,4.00
2008,02,21,07,15,3.90
2008,02,21,07,16,3.90
2008,02,21,07,17,3.90
2008,02,21,07,18,3.90
2008,02,21,07,19,3.90
2008,02,21,07,20,3.90
2008,02,21,07,21,3.90
2008,02,21,07,22,3.80
2008,02,21,07,23,3.80
2008,02,21,07,24,3.80
2008,02,21,07,25,3.80
2008,02,21,07,26,3.80
2008,02,21,07,27,3.80
2008,02,21,07,28,3.80
2008,02,21,07,29,3.80
2008,02,21,07,30,3.80
2008,02,21,07,31,3.80
2008,02,21,07,32,3.80
2008,02,21,07,33,3.80
2008,02,21,07,34,3.80
2008,02,21,07,35,3.80
2008,02,21,07,36,3.80
2008,02,21,07,37,3.80
2008,02,21,07,38,3.80
2008,02,21,07,39,3.80
2008,02,21,07,40,3.80
2008,02,21,07,41,3.80
2008,02,21,07,42,3.80
2008,02,21,07,43,3.80
2008,02,21,07,44,3.90
2008,02,21,07,45,3.90
2008,02,21,07,46,3.90
2008,02,21,07,47,3.90
2008,02,21,07,48,4.00
2008,02,21,07,49,4.00
2008,02,21,07,50,4.00
2008,02,21,07,51,4.00
2008,02,21,07,52,4.00
2008,02,21,07,53,4.00
2008,02,21,07,54,4.10
2008,02,21,07,55,4.10
2008,02,21,07,56,4.10
2008,02,21,07,57,4.10
2008,02,21,07,58,4.20
2008,02,21,07,59,4.20
2008,02,21,08,00,4.20
2008,02,21,08,01,4.20
2008,02,21,08,02,4.20
2008,02,21,08,03,4.20
2008,02,21,08,04,4.20
2008,02,21,08,05,4.30
2008,02,21,08,06,4.30
2008,02,21,08,07,4.30
2008,02,21,08,08,4.30
2008,02,21,08,09,4.40
2008,02,21,08,10,4.40
2008,02,21,08,11,4.40
2008,02,21,08,12,4.50
2008,02,21,08,13,4.50
2008,02,21,08,14,4.50
2008,02,21,08,15,4.60
2008,02,21,08,16,4.60
2008,02,21,08,17,4.60
2008,02,21,08,18,4.60
2008,02,21,08,19,4.60
2008,02,21,08,20,4.60
2008,02,21,08,21,4.70
2008,02,21,08,22,4.70
2008,02,21,08,23,4.70
2008,02,21,08,24,4.70
2008,02,21,08,25,4.80
2008,02,21,08,26,4.80
2008,02,21,08,27,4.80
2008,02,21,08,28,4.80
2008,02,21,08,29,4.90
2008,02,21,08,30,4.90
2008,02,21,08,31,4.90
2008,02,21,08,32,4.90
2008,02,21,08,33,4.90
2008,02,21,08,34,4.90
2008,02,21,08,35,4.90
2008,02,21,08,36,5.10
2008,02,21,08,37,5.10
2008,02,21,08,38,5.10
2008,02,21,08,39,5.10
2008,02,21,08,40,5.10
2008,02,21,08,41,5.10
2008,02,21,08,42,5.10
2008,02,21,08,43,5.10
2008,02,21,08,44,5.10
2008,02,21,08,45,5.10
2008,02,21,08,46,5.10
2008,02,21,08,47,5.10
2008,02,21,08,48,5.10
2008,02,21,08,49,5.10
2008,02,21,08,50,5.10
2008,02,21,08,51,5.10
2008,02,21,08,52,5.20
2008,02,21,08,53,5.20
2008,02,21,08,54,5.20
2008,02,21,08,55,5.30
2008,02,21,08,56,5.30
2008,02,21,08,57,5.30
2008,02,21,08,58,5.30
2008,02,21,08,59,5.30
2008,02,21,09,00,5.30
2008,02,21,09,01,5.30
2008,02,21,09,02,5.30
2008,02,21,09,03,5.30
2008,02,21,09,04,5.30
2008,02,21,09,05,5.30
2008,02,21,09,06,5.40
2008,02,21,09,07,5.40
2008,02,21,09,08,5.40
2008,02,21,09,09,5.50
2008,02,21,09,10,5.50
2008,02,21,09,11,5.50
2008,02,21,09,12,5.60
2008,02,21,09,13,5.60
2008,02,21,09,14,5.70
2008,02,21,09,15,5.70
2008,02,21,09,16,5.70
2008,02,21,09,17,5.70
2008,02,21,09,18,5.70
2008,02,21,09,19,5.70
2008,02,21,09,20,5.70
2008,02,21,09,21,5.70
2008,02,21,09,22,5.70
2008,02,21,09,23,5.70
2008,02,21,09,24,5.70
2008,02,21,09,25,5.70
2008,02,21,09,26,5.70
2008,02,21,09,27,5.70
2008,02,21,09,28,5.70
2008,02,21,09,29,5.60
2008,02,21,09,30,5.60
2008,02,21,09,31,5.60
2008,02,21,09,32,5.60
2008,02,21,09,33,5.60
2008,02,21,09,34,5.60
2008,02,21,09,35,5.60
2008,02,21,09,36,5.60
2008,02,21,09,37,5.60
2008,02,21,09,38,5.60
2008,02,21,09,39,5.60
2008,02,21,09,40,5.60
2008,02,21,09,41,5.60
2008,02,21,09,42,5.60
2008,02,21,09,43,5.60
2008,02,21,09,44,5.70
2008,02,21,09,45,5.70
2008,02,21,09,46,5.70
2008,02,21,09,47,5.70
2008,02,21,09,48,5.70
2008,02,21,09,49,5.70
2008,02,21,09,50,5.70
2008,02,21,09,51,5.70
2008,02,21,09,52,5.70
2008,02,21,09,53,5.80
2008,02,21,09,54,5.80
2008,02,21,09,55,5.90
2008,02,21,09,56,5.90
2008,02,21,09,57,6.00
2008,02,21,09,58,6.00
2008,02,21,09,59,6.00
2008,02,21,10,00,6.00
2008,02,21,10,01,6.00
2008,02,21,10,02,6.10
2008,02,21,10,03,6.10
2008,02,21,10,04,6.10
2008,02,21,10,05,6.10
2008,02,21,10,06,6.10
2008,02,21,10,07,6.10
2008,02,21,10,08,6.10
2008,02,21,10,09,6.10
2008,02,21,10,10,6.10
2008,02,21,10,11,6.10
2008,02,21,10,12,6.10
2008,02,21,10,13,6.20
2008,02,21,10,14,6.20
2008,02,21,10,15,6.20
2008,02,21,10,16,6.30
2008,02,21,10,17,6.30
2008,02,21,10,18,6.30
2008,02,21,10,19,6.40
2008,02,21,10,20,6.40
2008,02,21,10,21,6.40
2008,02,21,10,22,6.40
2008,02,21,10,23,6.40
2008,02,21,10,24,6.40
2008,02,21,10,25,6.40
2008,02,21,10,26,6.40
2008,02,21,10,27,6.40
2008,02,21,10,28,6.40
2008,02,21,10,29,6.40
2008,02,21,10,30,6.40
2008,02,21,10,31,6.40
2008,02,21,10,32,6.40
2008,02,21,10,33,6.40
2008,02,21,10,34,6.40
2008,02,21,10,35,6.40
2008,02,21,10,36,6.50
2008,02,21,10,37,6.60
2008,02,21,10,38,6.60
2008,02,21,10,39,6.60
2008,02,21,10,40,6.60
2008,02,21,10,41,6.60
2008,02,21,10,42,6.60
2008,02,21,10,43,6.70
2008,02,21,10,44,6.70
2008,02,21,10,45,6.70
2008,02,21,10,46,6.70
2008,02,21,10,47,6.70
2008,02,21,10,48,6.80
2008,02,21,10,49,6.80
2008,02,21,10,50,6.80
2008,02,21,10,51,6.80
2008,02,21,10,52,6.80
2008,02,21,10,53,6.80
2008,02,21,10,54,6.80
2008,02,21,10,55,6.80
2008,02,21,10,56,6.90
2008,02,21,10,57,6.90
2008,02,21,10,58,6.90
2008,02,21,10,59,6.90
2008,02,21,11,00,6.90
2008,02,21,11,01,6.90
2008,02,21,11,02,6.90
2008,02,21,11,03,6.80
2008,02,21,11,04,6.80
2008,02,21,11,05,6.80
2008,02,21,11,06,6.80
2008,02,21,11,07,6.80
2008,02,21,11,08,6.80
2008,02,21,11,09,6.90
2008,02,21,11,10,6.90
2008,02,21,11,11,6.90
2008,02,21,11,12,6.90
2008,02,21,11,13,7.00
2008,02,21,11,14,7.00
2008,02,21,11,15,7.00
2008,02,21,11,16,7.00
2008,02,21,11,17,7.00
2008,02,21,11,18,7.10
2008,02,21,11,19,7.10
2008,02,21,11,20,7.20
2008,02,21,11,21,7.20
2008,02,21,11,22,7.10
2008,02,21,11,23,7.10
2008,02,21,11,24,7.10
2008,02,21,11,25,7.20
2008,02,21,11,26,7.20
2008,02,21,11,27,7.20
2008,02,21,11,28,7.10
2008,02,21,11,29,7.10
2008,02,21,11,30,7.00
2008,02,21,11,31,7.00
2008,02,21,11,32,7.00
2008,02,21,11,33,7.00
2008,02,21,11,34,7.00
2008,02,21,11,35,7.00
2008,02,21,11,36,7.00
2008,02,21,11,37,7.10
2008,02,21,11,38,7.10
2008,02,21,11,39,7.10
2008,02,21,11,40,7.10
2008,02,21,11,41,7.10
2008,02,21,11,42,7.20
2008,02,21,11,43,7.20
2008,02,21,11,44,7.20
2008,02,21,11,45,7.10
2008,02,21,11,46,7.10
2008,02,21,11,47,7.10
2008,02,21,11,48,7.10
2008,02,21,11,49,7.10
2008,02,21,11,50,7.10
2008,02,21,11,51,7.20
2008,02,21,11,52,7.20
2008,02,21,11,53,7.20
2008,02,21,11,54,7.30
2008,02,21,11,55,7.20
2008,02,21,11,56,7.20
2008,02,21,11,57,7.10
2008,02,21,11,58,7.10
2008,02,21,11,59,7.10
2008,02,21,12,00,7.20
2008,02,21,12,01,7.20
2008,02,21,12,02,7.30
2008,02,21,12,03,7.30
2008,02,21,12,04,7.30
2008,02,21,12,05,7.30
2008,02,21,12,06,7.30
2008,02,21,12,07,7.30
2008,02,21,12,08,7.30
2008,02,21,12,09,7.30
2008,02,21,12,10,7.30
2008,02,21,12,11,7.30
2008,02,21,12,12,7.30
2008,02,21,12,13,7.30
2008,02,21,12,14,7.30
2008,02,21,12,15,7.30
2008,02,21,12,16,7.30
2008,02,21,12,17,7.30
2008,02,21,12,18,7.30
2008,02,21,12,19,7.30
2008,02,21,12,20,7.30
2008,02,21,12,21,7.30
2008,02,21,12,22,7.40
2008,02,21,12,23,7.40
2008,02,21,12,24,7.50
2008,02,21,12,25,7.50
2008,02,21,12,26,7.50
2008,02,21,12,27,7.60
2008,02,21,12,28,7.60
2008,02,21,12,29,7.70
2008,02,21,12,30,7.60
2008,02,21,12,31,7.60
2008,02,21,12,32,7.60
2008,02,21,12,33,7.60
2008,02,21,12,34,7.60
2008,02,21,12,35,7.50
2008,02,21,12,36,7.50
2008,02,21,12,37,7.40
2008,02,21,12,38,7.40
2008,02,21,12,39,7.40
2008,02,21,12,40,7.40
2008,02,21,12,41,7.40
2008,02,21,12,42,7.30
2008,02,21,12,43,7.30
2008,02,21,12,44,7.30
2008,02,21,12,45,7.30
2008,02,21,12,46,7.30
2008,02,21,12,47,7.30
2008,02,21,12,48,7.30
2008,02,21,12,49,7.30
2008,02,21,12,50,7.30
2008,02,21,12,51,7.30
2008,02,21,12,52,7.40
2008,02,21,12,53,7.40
2008,02,21,12,54,7.40
2008,02,21,12,55,7.40
2008,02,21,12,56,7.30
2008,02,21,12,57,7.30
2008,02,21,12,58,7.30
2008,02,21,12,59,7.30
2008,02,21,13,00,7.30
2008,02,21,13,01,7.40
2008,02,21,13,02,7.40
2008,02,21,13,03,7.40
2008,02,21,13,04,7.40
2008,02,21,13,05,7.40
2008,02,21,13,06,7.40
2008,02,21,13,07,7.30
2008,02,21,13,08,7.30
2008,02,21,13,09,7.30
2008,02,21,13,10,7.40
2008,02,21,13,11,7.40
2008,02,21,13,12,7.40
2008,02,21,13,13,7.40
2008,02,21,13,14,7.50
2008,02,21,13,15,7.50
2008,02,21,13,16,7.50
2008,02,21,13,17,7.60
2008,02,21,13,18,7.60
2008,02,21,13,19,7.60
2008,02,21,13,20,7.60
2008,02,21,13,21,7.70
2008,02,21,13,22,7.70
2008,02,21,13,23,7.70
2008,02,21,13,24,7.80
2008,02,21,13,25,7.80
2008,02,21,13,26,7.80
2008,02,21,13,27,7.80
2008,02,21,13,28,7.80
2008,02,21,13,29,7.80
2008,02,21,13,30,7.90
2008,02,21,13,31,8.00
2008,02,21,13,32,8.00
2008,02,21,13,33,8.00
2008,02,21,13,34,8.10
2008,02,21,13,35,8.10
2008,02,21,13,36,8.10
2008,02,21,13,37,8.10
2008,02,21,13,38,8.10
2008,02,21,13,39,8.20
2008,02,21,13,40,8.20
2008,02,21,13,41,8.20
2008,02,21,13,42,8.20
2008,02,21,13,43,8.20
2008,02,21,13,44,8.10
2008,02,21,13,45,8.10
2008,02,21,13,46,8.10
2008,02,21,13,47,8.10
2008,02,21,13,48,8.10
2008,02,21,13,49,8.10
2008,02,21,13,50,8.10
2008,02,21,13,51,8.00
2008,02,21,13,52,8.00
2008,02,21,13,53,8.00
2008,02,21,13,54,8.10
2008,02,21,13,55,8.10
2008,02,21,13,56,8.10
2008,02,21,13,57,8.10
2008,02,21,13,58,8.10
2008,02,21,13,59,8.10
2008,02,21,14,00,8.10
2008,02,21,14,01,8.10
2008,02,21,14,02,8.10
2008,02,21,14,03,8.10
2008,02,21,14,04,8.10
2008,02,21,14,05,8.10
2008,02,21,14,06,8.20
2008,02,21,14,07,8.20
2008,02,21,14,08,8.20
2008,02,21,14,09,8.20
2008,02,21,14,10,8.20
2008,02,21,14,11,8.20
2008,02,21,14,12,8.20
2008,02,21,14,13,8.20
2008,02,21,14,14,8.30
2008,02,21,14,15,8.30
2008,02,21,14,16,8.50
2008,02,21,14,17,8.50
2008,02,21,14,18,8.60
2008,02,21,14,19,8.60
2008,02,21,14,20,8.60
2008,02,21,14,21,8.70
2008,02,21,14,22,8.70
2008,02,21,14,23,8.70
2008,02,21,14,24,8.70
2008,02,21,14,25,8.70
2008,02,21,14,26,8.60
2008,02,21,14,27,8.60
2008,02,21,14,28,8.60
2008,02,21,14,29,8.50
2008,02,21,14,30,8.50
2008,02,21,14,31,8.50
2008,02,21,14,32,8.50
2008,02,21,14,33,8.50
2008,02,21,14,34,8.60
2008,02,21,14,35,8.60
2008,02,21,14,36,8.60
2008,02,21,14,37,8.60
2008,02,21,14,38,8.60
2008,02,21,14,39,8.70
2008,02,21,14,40,8.70
2008,02,21,14,41,8.70
2008,02,21,14,42,8.70
2008,02,21,14,43,8.70
2008,02,21,14,44,8.70
2008,02,21,14,45,8.70
2008,02,21,14,46,8.70
2008,02,21,14,47,8.70
2008,02,21,14,48,8.70
2008,02,21,14,49,8.70
2008,02,21,14,50,8.70
2008,02,21,14,51,8.70
2008,02,21,14,52,8.70
2008,02,21,14,53,8.70
2008,02,21,14,54,8.70
2008,02,21,14,55,8.70
2008,02,21,14,56,8.80
2008,02,21,14,57,8.80
2008,02,21,14,58,8.90
2008,02,21,14,59,8.90
2008,02,21,15,00,9.00
2008,02,21,15,01,9.10
2008,02,21,15,02,9.10
2008,02,21,15,03,9.20
2008,02,21,15,04,9.20
2008,02,21,15,05,9.10
2008,02,21,15,06,9.10
2008,02,21,15,07,9.10
2008,02,21,15,08,9.10
2008,02,21,15,09,9.00
2008,02,21,15,10,9.00
2008,02,21,15,11,9.00
2008,02,21,15,12,9.00
2008,02,21,15,13,9.00
2008,02,21,15,14,8.90
2008,02,21,15,15,8.90
2008,02,21,15,16,8.90
2008,02,21,15,17,9.00
2008,02,21,15,18,9.00
2008,02,21,15,19,9.10
2008,02,21,15,20,9.10
2008,02,21,15,21,9.10
2008,02,21,15,22,9.20
2008,02,21,15,23,9.20
2008,02,21,15,24,9.10
2008,02,21,15,25,9.10
2008,02,21,15,26,9.10
2008,02,21,15,27,9.10
2008,02,21,15,28,9.10
2008,02,21,15,29,9.10
2008,02,21,15,30,9.20
2008,02,21,15,31,9.10
2008,02,21,15,32,9.10
2008,02,21,15,33,9.10
2008,02,21,15,34,9.20
2008,02,21,15,35,9.20
2008,02,21,15,36,9.20
2008,02,21,15,37,9.30
2008,02,21,15,38,9.30
2008,02,21,15,39,9.30
2008,02,21,15,40,9.30
2008,02,21,15,41,9.30
2008,02,21,15,42,9.30
2008,02,21,15,43,9.20
2008,02,21,15,44,9.20
2008,02,21,15,45,9.20
2008,02,21,15,46,9.20
2008,02,21,15,47,9.30
2008,02,21,15,48,9.30
2008,02,21,15,49,9.30
2008,02,21,15,50,9.30
2008,02,21,15,51,9.30
2008,02,21,15,52,9.30
2008,02,21,15,53,9.30
2008,02,21,15,54,9.30
2008,02,21,15,55,9.30
2008,02,21,15,56,9.30
2008,02,21,15,57,9.20
2008,02,21,15,58,9.20
2008,02,21,15,59,9.20
2008,02,21,16,00,9.20
2008,02,21,16,01,9.20
2008,02,21,16,02,9.20
2008,02,21,16,03,9.20
2008,02,21,16,04,9.20
2008,02,21,16,05,9.20
2008,02,21,16,06,9.20
2008,02,21,16,07,9.20
2008,02,21,16,08,9.20
2008,02,21,16,09,9.20
2008,02,21,16,10,9.20
2008,02,21,16,11,9.30
2008,02,21,16,12,9.20
2008,02,21,16,13,9.30
2008,02,21,16,14,9.30
2008,02,21,16,15,9.30
2008,02,21,16,16,9.30
2008,02,21,16,17,9.30
2008,02,21,16,18,9.30
2008,02,21,16,19,9.40
2008,02,21,16,20,9.40
2008,02,21,16,21,9.40
2008,02,21,16,22,9.50
2008,02,21,16,23,9.50
2008,02,21,16,24,9.50
2008,02,21,16,25,9.50
2008,02,21,16,26,9.50
2008,02,21,16,27,9.50
2008,02,21,16,28,9.40
2008,02,21,16,29,9.40
2008,02,21,16,30,9.40
2008,02,21,16,31,9.40
2008,02,21,16,32,9.40
2008,02,21,16,33,9.40
2008,02,21,16,34,9.40
2008,02,21,16,35,9.30
2008,02,21,16,36,9.30
2008,02,21,16,37,9.20
2008,02,21,16,38,9.20
2008,02,21,16,39,9.20
2008,02,21,16,40,9.20
2008,02,21,16,41,9.20
2008,02,21,16,42,9.10
2008,02,21,16,43,9.10
2008,02,21,16,44,9.00
2008,02,21,16,45,9.00
2008,02,21,16,46,8.90
2008,02,21,16,47,8.90
2008,02,21,16,48,8.80
2008,02,21,16,49,8.80
2008,02,21,16,50,8.80
2008,02,21,16,51,8.70
2008,02,21,16,52,8.70
2008,02,21,16,53,8.70
2008,02,21,16,54,8.70
2008,02,21,16,55,8.70
2008,02,21,16,56,8.70
2008,02,21,16,57,8.70
2008,02,21,16,58,8.60
2008,02,21,16,59,8.60
2008,02,21,17,00,8.60
2008,02,21,17,01,8.60
2008,02,21,17,02,8.60
2008,02,21,17,03,8.60
2008,02,21,17,04,8.60
2008,02,21,17,05,8.50
2008,02,21,17,06,8.50
2008,02,21,17,07,8.50
2008,02,21,17,08,8.50
2008,02,21,17,09,8.50
2008,02,21,17,10,8.40
2008,02,21,17,11,8.40
2008,02,21,17,12,8.40
2008,02,21,17,13,8.40
2008,02,21,17,14,8.30
2008,02,21,17,15,8.30
2008,02,21,17,16,8.30
2008,02,21,17,17,8.30
2008,02,21,17,18,8.30
2008,02,21,17,19,8.30
2008,02,21,17,20,8.20
2008,02,21,17,21,8.20
2008,02,21,17,22,8.20
2008,02,21,17,23,8.20
2008,02,21,17,24,8.20
2008,02,21,17,25,8.20
2008,02,21,17,26,8.20
2008,02,21,17,27,8.20
2008,02,21,17,28,8.20
2008,02,21,17,29,8.20
2008,02,21,17,30,8.20
2008,02,21,17,31,8.20
2008,02,21,17,32,8.20
2008,02,21,17,33,8.20
2008,02,21,17,34,8.20
2008,02,21,17,35,8.20
2008,02,21,17,36,8.20
2008,02,21,17,37,8.20
2008,02,21,17,38,8.20
2008,02,21,17,39,8.20
2008,02,21,17,40,8.20
2008,02,21,17,41,8.20
2008,02,21,17,42,8.10
2008,02,21,17,43,8.10
2008,02,21,17,44,8.10
2008,02,21,17,45,8.10
2008,02,21,17,46,8.10
2008,02,21,17,47,8.10
2008,02,21,17,48,8.00
2008,02,21,17,49,8.00
2008,02,21,17,50,8.00
2008,02,21,17,51,8.00
2008,02,21,17,52,8.00
2008,02,21,17,53,8.00
2008,02,21,17,54,8.00
2008,02,21,17,55,8.00
2008,02,21,17,56,8.00
2008,02,21,17,57,8.00
2008,02,21,17,58,8.00
2008,02,21,17,59,8.00
2008,02,21,18,00,7.90
2008,02,21,18,01,7.90
2008,02,21,18,02,7.90
2008,02,21,18,03,7.90
2008,02,21,18,04,7.90
2008,02,21,18,05,7.90
2008,02,21,18,06,7.90